{"data":{"norad_id":68699,"epoch":"2026-09-20T02:36:57.891168Z","epoch_age_seconds":77567,"freshness":"FRESH","line1":"1 68699U 26081A   26263.10900337  .00015143  00000+0  45879-3 0  9996","line2":"2 68699  53.1586 207.8914 0001158 112.4941 247.6185 15.34372879 24554","mean_motion":15.34372879,"eccentricity":0.0001158,"inclination_deg":53.1586,"raan_deg":207.8914,"arg_perigee_deg":112.4941,"mean_anomaly_deg":247.6185,"bstar":0.00045879,"rev_number":2455,"period_min":93.849416899137,"perigee_km":461.99167208743,"apogee_km":463.57602935646,"semimajor_km":6840.9208507219,"source":"CELESTRAK","updated_at":"2026-09-20T09:00:43.955966Z"}}